Location: Rowland
(34.5359°N, 79.2929°W)
Time: 19:51:34
(UTC+00:00)

Transit 2A - Pass Details

Date: 13 October 2022
Orbit: 598 x 959 km, 66.7° (Epoch: 03 December)

Event Time Altitude Azimuth Distance (km) Brightness Sun altitude
Rises 01:31:51 0° 211° (SSW) 2,939 - -34.6°
Reaches altitude 10° 01:34:11 10° 214° (SW) 1,996 - -35.1°
Maximum altitude 01:38:37 67° 297° (WNW) 657 - -36.0°
Drops below altitude 10° 01:42:54 10° 21° (NNE) 1,939 - -36.8°
Sets 01:45:09 0° 24° (NNE) 2,847 - -37.2°
